Location: Unspecified
(38.7273°N, 77.0677°W)
Time: 22:27:26
(UTC-04:00)

CAS-4B - Pass Details

Date: 24 September 2021
Orbit: 528 x 541 km, 43.0° (Epoch: 27 October)

Event Time Altitude Azimuth Distance (km) Brightness Sun altitude
Exits shadow 06:17:52 10° 283° (WNW) 1,764 ? -8.6°
Maximum altitude 06:21:45 45° 356° (N) 730 ? -7.9°
Drops below altitude 10° 06:25:39 10° 70° (ENE) 1,771 ? -7.1°
Sets 06:27:57 0° 77° (ENE) 2,662 ? -6.7°
